{"data":{"norad_id":58595,"epoch":"2026-05-25T05:02:15.635616Z","epoch_age_seconds":47007,"freshness":"FRESH","line1":"1 58595U 23200G   26145.20990319 -.00000505  00000+0 -88243-5 0  9991","line2":"2 58595  43.0003  96.7056 0001327 270.4942  89.5757 15.27579397135317","mean_motion":15.27579397,"eccentricity":0.0001327,"inclination_deg":43.0003,"raan_deg":96.7056,"arg_perigee_deg":270.4942,"mean_anomaly_deg":89.5757,"bstar":-8.8243e-6,"rev_number":13531,"period_min":94.266785924712,"perigee_km":482.14042200463,"apogee_km":483.96138127372,"semimajor_km":6861.1879016392,"source":"CELESTRAK","updated_at":"2026-05-25T13:38:18.666192Z"}}